User: anonymous   Login
Location: Unspecified
(0.0000°N, 0.0000°E)
Time: 06:22:13
(UTC+00:00)
Language:

NUDT-PHONESAT - Orbit

View from above orbital plane
View from above orbital plane
View from above satellite
View from above satellite

Ground track
Ground track

The orbit data is extracted from the following two-line orbital elements,

1 40900U 15049B   18175.54033041 +.00002574 +00000-0 +11773-3 0  9994
2 40900 097.4401 183.7070 0013707 011.7084 348.4468 15.21365533153038
Epoch (UTC): 24 June 2018 12:58:04
Eccentricity: 0.0013707
inclination: 97.4401°
perigee height: 492 km
apogee height: 511 km
right ascension of ascending node: 183.7070°
argument of perigee: 11.7084°
revolutions per day: 15.21365533
mean anomaly at epoch: 348.4468°
orbit number at epoch: 15303

The dashed part of the orbit path shows where the satellite is in the earth's shadow,  

DLR